Hourly Data Report for June 19, 2021

VINELAND STATION RCS
ONTARIO
Current Station Operator: ECCC - MSC

43°11'00.000" N
79°24'00.000" W
79.20 m
6139148
71171
XVN

Download Data

Hourly Data (June 2021)
Hourly Data Report for June 19, 2021
TIME
LST
Temp Definition
°C
Dew Point Definition
°C
Rel Hum Definition
%
Precip. Amount Definition
mm

Wind Dir Definition
10's deg

Wind Spd Definition
km/h
Visibility Definition
km
Stn Press Definition
kPa
Hmdx Definition


Wind Chill Definition


Weather Definition


00:00 21.3 18.8 86 0.0 22 20   99.59 28   LegendNANA
01:00 20.7 17.6 82 0.0 29 17   99.72 26   LegendNANA
02:00 18.1 16.7 91 4.7 20 5   99.66     LegendNANA
03:00 17.2 15.8 91 0.0 23 3   99.58     LegendNANA
04:00 18.9 17.9 94 0.0 21 9   99.65     LegendNANA
05:00 19.8 18.6 92 0.0 22 12   99.67     LegendNANA
06:00 20.2 18.6 91 0.0 27 11   99.75 27   LegendNANA
07:00 21.7 19.2 85 0.0 22 10   99.76 29   LegendNANA
08:00 24.2 18.3 70 0.0 23 12   99.75 30   LegendNANA
09:00 26.1 17.4 59 0.0 23 13   99.68 32   LegendNANA
10:00 27.5 15.4 48 0.0 24 18   99.64 32   LegendNANA
11:00 28.3 18.6 56 0.0 22 21   99.68 35   LegendNANA
12:00 27.5 19.4 61 0.0 20 22   99.66 35   LegendNANA
13:00 28.3 18.0 54 0.0 22 22   99.61 34   LegendNANA
14:00 26.6 19.5 65 0.0 20 21   99.54 34   LegendNANA
15:00 25.3 20.0 72 0.0 21 17   99.55 33   LegendNANA
16:00 22.9 14.7 60 0.0 29 22   99.58 27   LegendNANA
17:00 21.2 14.8 67 0.0 30 17   99.70 25   LegendNANA
18:00 21.2 16.2 73 0.0 23 8   99.65 26   LegendNANA
19:00 22.3 15.0 63 0.0 22 12   99.68 26   LegendNANA
20:00 21.0 14.3 66 0.0 21 17   99.79 25   LegendNANA
21:00 18.9 16.2 84 0.0 20 14   99.83     LegendNANA
22:00 18.6 15.8 84 0.0 21 18   99.82     LegendNANA
23:00 18.2 15.4 84 0.0 21 11   99.84     LegendNANA

Notes on Data Quality.

Legend

  • E = Estimated
  • M = Missing
  • NA = Not Available*
  • [empty] = Indicates an unobserved value
Date modified: